Theta_e
332 332 332 332 333 335 339 347 349 350 351 351 351 352 352 351 351 352 352 354 354 351 351 352 352 353 355 354 354 354 353 353 353 353 352 351 351 351 351 351 350 350 350 351 351 351 351 351 349 348 348 348 345 340 339 340 341 343 342 343 341 339
332 332 332 332 334 332 334 338 343 348 349 349 351 351 349 349 352 349 352 351 349 350 349 348 350 353 353 354 353 354 353 353 352 351 351 350 350 351 351 351 350 350 350 350 348 347 350 350 350 349 348 345 339 339 340 341 341 341 341 341 341 338
333 332 332 331 334 335 334 336 338 347 347 350 350 350 348 349 347 348 348 346 349 348 347 348 349 352 352 353 353 353 353 352 351 350 350 350 350 350 351 351 351 350 350 348 342 341 345 346 347 348 345 340 339 339 340 340 341 341 340 341 339 340
331 331 330 332 333 334 333 335 338 346 346 346 348 348 347 347 346 345 344 345 346 348 347 348 353 355 354 350 351 353 353 351 350 349 349 349 351 350 349 350 352 352 349 340 336 340 343 343 341 339 338 339 339 340 340 340 341 341 341 341 339 341
332 331 330 330 332 333 333 334 338 346 345 343 345 345 346 345 345 343 343 345 347 348 347 349 349 349 347 346 344 342 343 341 339 340 344 336 335 337 334 332 332 338 336 339 335 335 342 341 339 339 339 339 340 340 340 340 341 341 341 341 341 341
331 330 330 327 331 334 335 334 336 342 342 342 343 344 344 344 344 343 343 346 347 346 346 346 346 346 345 343 343 341 336 336 336 335 339 332 331 332 331 331 331 331 333 338 336 333 341 340 338 339 339 339 340 340 340 340 341 341 341 341 342 340
331 332 329 328 331 333 333 334 336 337 341 338 344 340 344 344 344 343 343 346 346 345 345 344 344 345 344 343 341 339 336 335 333 332 335 332 330 331 331 331 330 331 329 332 335 331 338 338 338 339 339 339 340 340 340 340 340 340 340 341 341 341
330 331 329 331 331 331 333 334 335 338 341 341 343 342 343 345 345 344 344 345 346 345 343 343 344 344 343 341 340 339 335 334 332 331 332 332 328 328 331 332 332 331 329 329 330 330 336 337 338 340 339 339 340 340 340 340 340 340 340 340 341 341
331 331 332 332 332 333 335 334 334 333 335 342 341 341 342 344 344 344 345 344 344 342 343 343 343 343 342 341 339 337 335 333 330 330 330 329 327 325 328 331 332 332 331 329 328 329 334 336 339 340 339 339 340 339 340 340 340 340 340 340 340 341
330 331 331 331 332 333 332 331 331 332 332 338 340 341 341 344 344 344 344 343 343 342 342 343 343 342 340 339 337 335 334 331 330 329 329 328 329 327 328 329 331 332 327 325 326 330 334 336 339 340 340 340 340 340 340 340 340 340 340 340 341 342
331 332 331 330 330 332 333 332 331 331 333 335 340 342 340 342 343 344 344 344 343 343 342 343 343 341 339 338 336 335 334 331 330 329 330 329 331 330 330 332 332 333 328 326 328 332 334 338 339 340 341 340 340 340 340 340 340 341 340 340 341 341
332 334 334 331 332 332 332 331 331 332 333 336 339 340 341 340 343 343 343 341 341 341 342 341 341 340 338 337 336 334 333 330 330 329 330 330 331 331 332 333 334 333 330 329 329 331 337 339 339 340 340 340 340 340 340 341 340 340 340 340 340 340
333 332 333 332 332 332 332 332 331 332 333 337 337 337 336 337 339 341 341 339 340 341 342 341 340 340 340 337 335 333 331 331 330 329 330 332 332 331 332 332 332 331 329 330 332 335 339 340 339 340 340 340 340 339 340 340 340 341 341 340 339 339
331 330 333 333 334 332 332 332 333 331 334 336 336 336 335 334 337 339 340 340 339 341 342 342 340 339 338 336 334 333 332 331 330 330 331 333 332 331 331 332 331 331 334 331 332 336 339 338 339 339 339 340 339 339 340 340 340 340 341 340 340 338
330 329 330 332 334 333 333 332 332 332 332 333 335 335 334 334 336 337 338 338 337 339 342 342 341 339 337 336 334 333 332 332 331 330 330 332 333 332 332 331 330 327 329 330 333 338 338 338 338 338 338 339 338 339 340 339 340 340 339 340 340 338
328 327 328 330 333 333 332 331 331 333 332 333 333 334 334 335 335 336 338 336 335 338 339 339 339 338 337 335 334 333 333 333 332 331 330 331 334 332 332 331 331 328 328 330 334 334 337 338 338 338 338 338 339 339 339 339 339 339 339 339 339 338
327 327 327 329 330 331 331 331 333 334 334 333 332 333 334 335 335 336 337 336 335 337 338 338 338 338 336 335 333 333 333 333 333 331 331 331 332 334 332 331 330 330 330 330 332 333 336 338 337 338 338 338 338 339 338 338 339 338 338 337 337 338
326 327 326 327 329 329 331 332 332 332 335 333 332 334 335 336 336 336 336 335 335 336 336 337 337 337 336 335 334 333 333 332 333 331 331 331 332 333 332 331 328 327 328 331 331 333 334 337 337 337 337 337 338 338 338 338 339 339 337 336 337 337
322 325 326 326 328 328 329 329 331 332 330 330 331 332 334 336 336 336 335 335 335 336 336 335 336 337 336 336 334 333 332 332 333 332 331 330 330 333 333 331 329 327 329 331 331 332 335 337 337 337 337 337 338 338 338 338 339 338 337 337 337 337
317 323 327 326 326 327 327 326 326 328 329 330 331 332 332 332 335 335 336 336 335 334 335 334 334 335 336 336 334 333 332 330 331 331 330 329 329 331 332 330 328 325 325 327 329 333 337 337 337 337 337 337 338 338 337 338 338 338 338 337 337 338
313 318 322 325 325 325 324 325 325 325 325 328 329 331 331 331 331 333 336 335 335 335 335 335 335 334 334 338 335 333 332 330 330 331 330 330 330 330 332 331 329 330 325 324 327 333 336 337 335 333 336 336 337 339 339 338 337 337 337 337 338 337
311 313 317 322 325 325 326 325 324 324 326 326 327 327 327 328 330 331 331 334 335 334 334 335 335 334 334 335 333 332 332 332 330 331 331 332 330 335 332 329 329 329 328 326 325 332 335 336 331 331 330 331 334 337 340 339 337 337 337 337 337 337
310 311 312 319 321 323 326 327 326 326 326 326 328 330 329 331 332 330 329 329 334 335 333 333 335 336 333 333 332 333 333 332 331 333 332 330 331 331 330 329 328 327 325 326 327 332 336 337 329 331 332 331 327 328 332 335 338 338 338 337 337 336
309 310 311 315 321 321 325 327 327 328 328 327 328 331 330 330 328 328 328 329 329 333 335 334 334 335 335 333 333 334 333 333 333 333 331 329 329 328 329 328 327 328 327 324 323 328 335 330 333 332 325 324 327 327 323 327 331 336 338 337 337 335
309 309 310 314 313 318 320 322 325 325 327 327 326 325 326 326 327 328 329 328 327 332 334 334 335 335 336 333 332 333 333 334 334 335 333 330 329 329 329 329 329 328 326 325 321 325 330 329 334 337 329 325 323 322 322 324 330 332 337 335 336 337
309 310 310 311 312 315 316 317 321 321 320 321 320 321 323 325 326 326 328 330 331 333 333 333 334 335 336 337 333 332 333 334 335 336 337 334 332 330 329 328 328 328 326 325 325 324 327 329 333 335 334 333 330 324 323 322 328 324 334 338 337 337
308 311 310 311 311 315 313 315 317 319 322 320 319 322 325 327 327 328 330 330 332 332 333 333 333 334 334 335 335 333 333 334 335 336 339 336 334 333 331 329 329 327 327 325 324 323 325 326 328 330 331 330 334 328 329 327 325 321 323 328 333 335
308 311 310 310 311 312 313 313 314 315 319 320 321 321 323 325 328 329 327 329 331 331 332 334 333 334 335 335 335 334 333 334 334 336 338 336 335 334 334 334 332 329 328 326 324 323 324 326 325 327 330 329 329 327 331 327 328 326 323 323 326 334
307 307 308 309 312 309 314 313 312 313 314 316 321 324 326 326 326 327 326 327 329 330 331 332 333 334 332 333 335 335 334 333 334 335 340 337 335 334 334 334 332 330 328 327 325 325 323 325 327 327 327 328 327 327 328 328 329 325 324 321 320 326
306 307 308 308 309 309 309 312 310 311 312 313 317 319 323 324 324 325 324 325 327 328 330 332 334 334 334 333 332 333 333 333 333 334 338 338 336 334 333 333 333 332 330 329 327 327 323 323 327 328 329 329 327 326 327 328 328 326 325 325 323 324
306 307 308 308 308 308 309 309 310 310 311 312 315 317 317 319 322 325 325 325 327 327 329 330 331 333 332 332 332 334 334 334 334 335 337 336 337 336 334 333 333 332 331 330 328 327 326 324 324 324 326 328 328 328 327 326 327 327 328 324 324 322
306 306 307 308 308 308 308 309 309 310 310 312 314 315 315 316 318 321 324 325 327 328 328 329 330 331 332 333 332 333 335 335 335 334 333 334 336 337 336 334 332 331 331 330 329 330 327 325 322 322 323 325 327 329 330 329 330 330 328 327 327 325
305 306 306 307 307 307 308 308 309 309 310 314 313 315 315 316 318 319 321 323 325 326 327 328 328 329 331 332 333 332 332 333 333 334 334 333 333 334 335 335 333 331 331 329 328 328 327 327 325 324 323 323 325 326 328 330 331 330 331 330 328 326
304 305 306 307 307 307 308 309 309 309 310 311 312 315 314 315 317 318 320 321 323 326 326 327 327 328 330 331 332 333 333 332 333 334 334 333 333 333 333 334 335 333 332 332 330 328 328 328 327 327 327 325 324 324 326 328 329 330 330 328 326 326
303 305 305 307 307 307 308 309 309 310 310 311 313 313 313 317 315 315 317 319 321 323 326 328 329 329 331 331 331 332 333 333 333 333 333 333 334 333 333 333 334 334 335 334 332 331 329 328 327 326 325 326 326 326 326 326 328 329 331 330 330 328
303 304 305 308 307 307 308 309 309 309 309 313 314 312 313 313 314 315 316 317 319 321 323 325 327 329 330 331 331 331 332 333 333 333 333 333 332 332 331 331 331 333 333 335 334 332 331 330 329 328 326 326 325 325 326 326 326 327 330 331 331 330
304 304 305 306 306 307 307 308 309 310 309 309 309 309 310 311 312 314 316 316 318 319 322 323 324 326 326 329 330 330 330 331 332 333 332 333 333 332 332 331 331 331 331 333 334 333 332 331 330 329 328 326 326 326 326 327 326 326 326 328 330 330
Wind_Speed
5 8 9 9 10 11 6 6 7 9 14 16 16 17 17 18 17 15 16 18 17 11 12 11 11 9 13 9 10 10 9 8 8 8 8 8 8 8 8 8 7 7 7 8 9 10 10 10 12 12 12 12 12 6 4 4 4 3 3 3 3 3
4 5 5 5 3 5 5 6 5 4 5 10 12 14 11 7 8 8 14 12 8 8 9 9 8 10 7 8 8 11 9 8 8 8 8 9 8 8 8 8 7 7 8 8 7 6 6 10 12 12 12 12 6 4 4 4 4 3 3 3 3 6
5 6 7 1 3 3 10 10 6 6 4 7 9 9 7 8 5 7 7 5 5 7 9 9 7 8 7 10 8 10 9 8 8 8 8 9 9 9 8 7 6 7 8 8 5 5 5 5 6 12 10 6 5 4 4 4 4 3 3 3 3 9
3 2 3 4 2 1 5 4 7 7 6 5 5 6 7 8 7 6 6 6 4 6 8 7 12 15 11 7 7 9 9 8 7 8 9 6 8 8 7 5 4 5 5 3 4 4 5 5 5 5 5 4 4 4 4 4 3 3 2 3 3 9
1 3 1 2 1 3 3 7 6 3 4 3 3 2 5 5 7 7 7 6 7 7 7 7 7 5 3 5 5 5 5 5 4 5 7 5 5 4 4 4 2 2 3 3 4 4 5 5 5 5 5 4 4 5 4 3 3 3 2 3 4 10
1 1 3 4 2 4 7 4 7 3 4 4 3 2 1 2 4 6 5 6 8 8 9 8 7 5 3 3 5 5 5 5 4 4 4 5 5 5 4 3 4 4 4 3 4 4 4 6 5 5 5 5 5 6 4 3 3 2 2 1 4 10
2 1 6 6 5 3 3 4 5 6 4 6 5 4 2 3 2 4 5 5 6 8 9 9 9 7 5 3 4 4 5 5 4 4 4 5 4 4 4 3 3 4 4 4 4 5 5 5 5 7 5 6 6 6 4 4 3 2 2 2 4 9
4 4 4 4 2 1 2 3 6 6 6 8 8 7 6 3 2 3 4 5 2 3 6 8 9 9 5 4 4 4 4 4 5 3 3 4 5 4 3 1 2 3 2 4 5 5 5 5 5 6 7 6 7 6 5 4 3 2 2 1 2 7
4 5 5 4 3 2 2 1 3 3 2 10 9 9 8 5 3 3 3 3 5 3 3 6 10 7 6 4 4 4 4 3 3 4 4 4 5 5 3 1 3 1 2 4 5 6 5 6 5 5 6 7 7 6 6 4 3 2 2 2 2 4
8 5 4 4 3 3 3 3 3 3 3 6 12 8 7 4 4 4 3 2 4 4 4 7 8 6 6 5 4 4 3 3 3 3 4 5 4 5 4 1 2 3 3 4 6 5 5 6 6 6 5 7 7 7 6 5 4 2 2 2 1 2
6 8 3 4 4 1 2 6 7 5 3 6 3 11 6 2 3 3 2 3 2 2 4 6 8 7 5 5 4 4 4 3 3 3 3 5 4 5 3 2 0 3 4 5 6 6 6 6 6 6 6 8 7 7 6 5 4 3 2 2 1 1
7 8 6 5 4 3 4 5 6 6 8 9 12 6 7 6 4 2 2 2 3 1 2 3 7 7 6 6 5 4 3 3 4 3 3 5 5 4 3 1 2 4 5 6 6 6 6 6 5 6 7 8 8 7 7 6 5 3 2 1 0 1
7 8 7 5 4 4 4 5 5 5 5 9 11 13 9 7 6 5 3 2 3 3 2 3 5 8 8 6 5 5 4 4 4 3 3 5 6 5 3 2 5 5 7 6 6 6 6 5 7 6 7 7 7 8 7 6 5 4 3 1 1 1
8 8 9 3 2 3 4 3 3 3 6 3 7 11 12 10 8 6 6 5 3 4 3 3 3 5 7 7 6 5 5 4 4 3 2 3 5 5 4 3 4 6 6 7 6 6 6 6 5 6 6 7 7 7 7 6 6 5 4 2 1 1
9 8 8 7 3 2 3 1 3 4 5 7 4 7 9 9 8 9 7 5 4 4 4 5 4 4 7 7 6 5 5 5 5 3 3 2 4 5 4 3 4 6 6 6 6 5 5 6 7 7 7 7 7 7 6 6 6 6 5 3 2 1
9 8 7 8 5 3 4 1 2 4 6 5 4 4 8 9 9 8 8 7 5 4 4 5 4 4 5 7 7 7 6 5 4 3 2 2 2 5 4 3 2 6 7 6 7 5 5 5 6 7 6 5 6 6 5 6 6 6 5 4 2 1
10 8 7 7 8 4 2 1 2 3 5 4 3 4 7 7 8 8 8 8 6 5 5 5 5 5 5 5 5 6 5 5 4 3 3 2 1 3 4 4 2 3 6 6 6 7 6 5 6 7 6 5 6 6 5 5 6 5 5 4 4 1
9 9 7 6 6 5 4 3 2 0 3 4 6 2 2 6 8 8 8 8 7 6 6 6 6 6 5 5 4 3 3 4 5 5 4 3 2 4 4 4 3 2 5 7 6 7 7 6 6 7 6 6 6 5 5 5 5 6 5 5 5 3
10 10 10 7 6 5 4 4 4 2 1 1 3 4 1 3 5 6 7 8 7 5 5 6 6 6 6 5 5 4 3 3 3 4 4 4 3 3 5 4 4 2 2 5 8 6 7 7 8 7 6 6 5 5 4 4 4 4 5 5 5 4
10 9 8 8 7 7 5 5 6 5 2 3 4 7 3 3 2 4 6 7 7 6 5 5 5 5 6 5 5 4 4 3 2 3 3 4 4 4 6 6 5 5 6 5 5 7 7 8 8 7 6 5 5 5 5 4 5 5 5 5 5 4
7 9 9 9 9 8 7 6 4 4 6 3 5 3 5 4 5 6 4 5 6 6 6 5 5 6 6 5 5 4 4 4 4 4 4 5 5 5 5 6 6 3 6 5 4 5 6 8 9 5 5 5 4 5 5 6 5 5 5 5 5 5
7 7 9 8 7 6 5 4 3 3 4 4 5 4 5 6 6 6 7 6 3 3 3 5 5 5 5 5 5 4 5 5 5 5 5 4 2 3 4 6 6 3 1 5 5 7 8 9 3 6 6 4 4 5 6 7 7 6 5 5 5 6
7 7 7 8 8 7 6 4 3 4 5 5 5 4 4 4 4 6 4 4 4 4 4 4 3 3 4 5 4 4 5 5 5 5 4 4 4 4 5 7 7 7 3 3 4 5 10 6 6 5 5 5 2 3 1 3 5 7 7 5 5 6
7 7 7 7 7 8 7 5 2 2 2 4 3 4 3 3 3 4 3 1 7 1 4 5 4 4 4 2 2 4 3 4 5 5 6 6 5 6 5 6 5 4 7 5 4 5 5 4 7 10 5 2 3 2 2 5 4 3 7 7 7 7
7 7 7 8 7 6 9 9 7 5 4 3 4 4 4 3 2 3 2 2 8 2 4 5 4 4 3 1 1 1 2 3 4 4 4 5 6 7 7 7 8 6 7 7 5 5 6 4 8 8 8 5 4 1 4 2 5 3 5 6 9 8
7 7 7 7 8 6 7 8 8 9 7 6 4 3 3 4 3 3 2 4 3 2 4 5 5 4 3 1 1 2 2 3 3 4 5 5 5 4 5 5 7 8 7 5 7 7 7 4 6 4 6 5 8 6 5 3 4 3 2 5 6 8
6 7 7 8 8 6 7 7 8 8 6 5 4 3 2 2 4 4 2 2 2 3 4 5 4 2 2 1 2 2 2 3 3 3 4 4 4 5 6 7 5 6 7 6 6 6 9 9 2 5 5 1 2 1 8 7 4 3 2 2 3 6
6 7 7 7 8 7 5 6 6 7 7 7 5 4 3 2 3 3 2 3 3 3 3 4 3 3 3 2 1 2 2 3 4 4 3 5 5 5 4 3 4 5 4 6 7 7 7 7 9 6 6 3 1 3 5 4 7 7 4 4 3 3
7 7 8 7 7 8 6 4 4 5 7 6 6 5 3 2 2 4 4 3 3 3 3 3 2 1 1 1 1 1 1 3 4 5 4 4 4 4 6 6 5 4 6 5 6 5 7 8 7 7 6 4 2 2 3 1 4 3 4 4 1 5
7 7 7 8 8 8 7 6 6 5 5 6 6 6 5 5 5 5 2 3 3 3 3 3 2 1 0 2 4 4 3 3 5 5 4 4 4 5 5 5 6 6 6 6 5 5 7 7 8 6 8 8 7 3 3 2 3 3 2 1 5 5
7 7 7 8 7 7 7 6 5 5 5 5 5 6 7 7 6 5 1 2 1 1 1 1 0 1 2 2 2 2 3 4 5 6 5 5 5 5 5 5 4 4 5 6 6 6 5 5 7 6 6 6 9 9 8 6 6 5 5 4 2 2
8 8 7 7 7 7 6 7 5 5 5 4 4 4 5 5 5 4 2 2 2 1 1 1 1 1 1 2 3 4 5 5 5 5 6 5 4 4 3 3 4 5 5 5 4 5 5 5 6 6 6 5 6 6 6 7 7 7 7 6 6 5
8 8 8 7 6 7 6 6 6 6 5 4 4 3 3 3 4 3 3 4 3 3 4 3 2 1 2 3 4 4 4 4 5 6 6 5 4 4 4 4 5 5 5 6 6 6 6 7 7 7 7 6 6 5 6 5 5 6 6 5 6 5
8 7 7 8 7 7 6 6 5 5 5 4 4 3 3 3 3 3 3 4 4 3 2 2 2 2 3 3 5 5 4 4 6 7 7 5 5 4 4 4 4 5 6 6 5 6 7 6 6 6 4 4 5 6 6 5 4 4 5 5 4 6
7 8 7 7 6 7 7 6 5 4 5 4 4 4 4 3 3 3 3 3 3 3 2 2 3 3 3 3 6 6 4 5 6 6 5 5 5 5 5 5 5 5 4 4 5 5 6 6 6 7 6 6 5 5 5 5 5 6 4 6 6 6
5 6 6 6 7 6 6 5 5 5 5 4 3 3 4 4 3 3 3 3 3 2 2 2 3 3 4 4 5 5 5 5 5 5 5 5 5 5 6 6 5 5 6 3 4 6 6 6 7 8 7 6 5 6 6 6 6 6 6 6 6 5
6 6 7 6 7 6 6 6 5 5 5 4 4 4 4 4 4 3 3 3 3 3 3 2 2 2 5 4 3 4 4 5 5 4 4 4 4 4 3 3 4 5 6 4 4 6 4 6 7 6 6 8 8 7 6 6 6 6 6 6 6 5
Wind_Direction
3 8 32 27 4 12 333 166 175 174 168 163 159 154 152 151 152 151 146 144 142 136 131 135 138 144 146 139 136 138 125 117 112 112 117 114 108 105 105 106 108 104 101 105 109 106 101 112 126 126 127 122 107 93 101 101 96 94 83 88 92 102
5 19 90 126 116 81 62 308 287 214 193 172 164 156 152 151 150 151 152 145 136 140 130 128 136 145 135 140 137 135 126 119 116 118 119 113 107 102 102 107 112 116 113 107 103 104 105 114 121 126 122 111 99 100 100 92 92 101 97 102 92 100
21 359 347 18 86 139 176 175 234 199 222 185 171 158 154 154 147 153 147 133 137 137 129 129 137 143 139 138 137 133 129 126 123 123 115 111 105 98 102 114 127 132 128 115 104 110 109 100 117 123 108 103 104 103 97 87 92 98 106 110 95 111
115 51 343 331 18 63 321 276 190 183 173 193 192 164 161 154 159 148 143 133 129 133 123 123 142 143 142 137 138 132 131 128 129 129 113 95 91 93 92 87 115 123 121 114 119 122 112 108 101 97 107 108 110 108 98 104 109 108 118 106 107 116
38 126 116 293 86 84 355 327 308 202 143 186 247 210 168 163 157 147 145 144 145 137 129 128 125 125 131 134 121 104 90 90 84 81 102 97 93 88 88 95 56 80 107 127 126 132 130 117 120 121 117 118 113 113 112 111 108 103 95 93 116 121
341 137 230 205 141 153 131 253 290 283 149 161 221 266 305 166 143 141 144 154 148 145 138 126 122 126 132 129 126 119 106 97 89 102 109 112 114 113 109 116 153 161 169 156 142 149 145 134 129 122 123 119 125 126 120 108 105 104 99 119 127 122
329 283 250 237 179 174 110 141 262 267 181 173 190 157 300 298 172 149 146 167 160 157 146 137 135 137 143 160 135 128 127 105 109 122 127 120 117 109 113 155 198 194 146 162 152 139 137 127 131 128 127 129 133 131 124 118 108 112 103 102 119 126
300 290 277 301 306 72 96 203 192 255 224 178 172 157 168 229 217 166 164 157 183 184 149 142 137 139 145 172 151 138 125 117 118 135 137 122 116 98 91 34 277 278 147 196 144 143 133 132 131 130 130 130 135 133 126 120 112 112 85 67 91 137
307 276 282 306 319 56 52 22 300 199 264 190 172 160 170 157 176 186 184 164 167 199 180 146 136 133 146 168 147 132 127 143 131 147 137 114 120 115 114 170 254 309 181 181 131 137 136 132 129 130 130 138 139 135 128 125 115 115 88 43 50 141
322 289 261 284 317 3 100 73 284 279 163 218 161 146 142 139 150 178 181 190 187 185 198 152 138 136 149 160 147 122 131 168 184 161 147 122 127 121 143 189 278 51 75 111 124 136 131 129 131 129 131 140 142 139 137 134 132 118 97 81 56 155
304 307 247 251 264 246 156 182 192 175 218 113 118 125 125 121 142 159 148 186 220 223 218 151 142 148 147 147 143 144 172 171 237 208 166 124 133 121 141 155 272 70 112 117 124 129 131 129 130 133 135 142 140 136 133 132 126 108 107 102 21 335
322 317 303 225 246 207 207 175 189 215 166 151 136 123 130 151 157 99 101 171 165 195 224 164 150 152 151 146 149 165 171 180 231 224 179 128 120 116 126 202 97 102 112 114 118 123 126 127 127 135 140 142 143 142 142 137 134 129 114 84 15 12
334 336 321 271 209 215 188 207 201 230 222 169 144 136 140 149 148 137 134 184 184 138 210 182 177 160 151 148 147 157 187 208 231 217 172 133 117 115 90 35 64 96 106 106 114 121 116 107 129 137 141 145 147 145 146 146 145 144 131 108 49 27
338 345 345 244 233 193 205 217 248 302 299 252 159 150 152 153 156 142 151 164 188 157 181 199 222 176 146 139 144 165 186 218 232 208 165 136 113 121 108 78 85 102 119 120 124 131 129 123 124 133 142 147 148 147 147 149 152 156 152 118 80 37
346 342 353 342 242 196 158 66 58 351 316 297 224 152 149 151 159 150 147 160 173 167 167 193 203 229 152 146 150 165 192 215 210 196 171 153 123 111 114 122 121 101 105 108 113 122 127 128 138 146 147 149 151 149 147 149 154 159 160 138 88 56
350 345 350 354 322 198 167 157 93 211 224 259 273 185 155 161 161 152 147 159 160 170 163 172 181 197 168 152 158 171 196 201 200 187 151 117 112 117 115 109 104 129 120 119 123 107 111 122 132 134 135 135 143 152 150 151 158 159 157 163 160 113
355 350 345 346 359 320 321 203 163 192 218 183 242 229 166 160 156 160 154 151 158 170 162 172 174 167 156 147 158 176 184 178 166 157 129 115 100 92 114 114 102 144 141 138 130 123 123 125 126 123 119 124 149 156 161 160 160 159 157 176 183 149
358 353 349 346 353 14 333 307 108 331 219 188 176 221 245 165 160 157 149 149 155 168 166 178 177 166 154 151 152 184 179 170 168 161 151 148 143 113 115 127 132 164 143 129 141 141 135 132 126 123 131 136 149 160 163 162 164 165 166 180 187 186
10 1 355 354 349 7 32 7 347 235 219 141 106 85 37 236 160 142 147 138 141 154 172 180 179 167 154 156 158 171 172 175 174 162 153 163 153 125 117 120 156 124 115 145 153 139 132 128 124 123 134 144 148 159 165 165 181 161 170 176 180 180
20 9 4 357 356 0 9 10 357 336 223 126 103 116 110 313 53 120 129 133 138 145 156 165 173 165 156 155 159 174 163 142 157 137 155 174 182 166 150 128 163 147 125 74 77 123 125 118 113 117 130 129 144 153 164 182 192 183 170 172 176 172
9 21 19 7 5 360 360 351 8 340 311 126 108 104 95 81 18 19 48 117 137 144 148 147 151 146 155 161 171 168 159 163 159 164 185 212 198 185 158 146 163 166 140 114 83 119 123 121 118 97 110 121 133 157 181 180 198 200 191 190 180 187
7 18 22 17 0 2 346 355 309 304 271 51 59 57 68 72 66 19 23 2 80 104 128 147 148 132 123 145 165 181 185 183 173 184 199 221 210 176 133 128 148 106 356 131 133 159 151 123 97 148 144 132 150 176 188 177 188 199 198 199 200 191
3 8 13 13 16 358 340 349 358 340 1 49 53 54 61 76 85 97 46 352 316 100 101 76 69 83 116 124 142 164 198 184 186 179 176 201 192 181 160 152 169 154 150 40 89 163 168 168 136 125 110 111 144 157 214 208 199 181 177 200 199 206
358 2 359 7 15 360 353 349 359 305 49 79 98 98 75 70 65 74 66 30 280 128 92 86 82 78 60 51 123 164 151 174 184 182 179 186 191 196 162 153 165 179 145 126 118 193 221 132 138 132 142 187 151 143 225 242 205 190 177 186 198 208
351 358 357 355 1 5 9 2 6 356 24 77 73 56 108 97 119 91 90 242 223 194 110 99 86 78 74 94 13 333 206 176 163 176 175 181 188 198 189 177 169 163 166 152 161 158 211 197 174 173 133 114 84 176 225 254 172 220 180 189 200 201
352 354 359 353 348 9 22 19 9 13 11 16 41 67 44 84 69 102 109 223 230 69 84 77 71 65 56 55 67 302 301 250 191 172 180 195 200 194 196 179 178 179 180 174 153 155 181 232 214 218 180 152 169 170 178 191 149 227 174 209 197 202
349 349 356 352 349 358 24 22 25 22 11 16 19 67 42 41 91 59 16 258 347 50 66 83 91 99 91 24 347 329 283 273 265 226 193 167 171 193 197 200 181 175 189 152 141 160 173 193 177 264 253 324 89 126 143 138 187 104 193 286 231 201
349 352 353 349 353 352 16 20 27 32 25 6 356 342 338 8 77 126 143 353 16 15 54 65 80 103 127 144 159 332 328 300 281 262 230 202 197 189 188 210 186 194 154 165 170 162 182 172 175 208 205 235 352 71 153 94 149 168 156 162 217 218
351 354 346 350 351 351 352 16 29 33 37 12 358 350 334 355 30 44 31 6 5 20 56 49 49 19 86 131 190 115 38 310 287 265 235 231 222 196 194 188 175 158 176 185 190 174 155 185 190 192 160 211 146 128 166 62 132 97 135 134 227 198
349 348 345 349 350 348 354 356 19 18 37 24 9 358 358 14 21 64 29 314 320 344 19 46 58 12 134 176 194 187 191 246 263 266 255 221 216 215 216 211 200 190 179 183 196 171 179 181 192 194 187 178 179 118 110 131 124 127 56 118 167 194
341 345 352 348 347 349 351 358 7 9 15 28 21 12 15 15 11 40 66 265 269 218 104 142 272 149 165 254 288 218 203 216 242 253 251 234 213 215 214 213 214 202 188 186 185 191 202 175 183 187 203 191 191 182 179 181 190 189 172 150 113 173
344 348 344 345 343 349 355 356 0 6 8 5 29 34 18 16 359 358 355 240 229 132 112 122 123 109 293 232 227 238 225 220 228 239 240 231 232 215 200 184 193 204 209 203 181 188 200 185 184 194 199 198 215 213 201 190 191 185 182 195 185 193
343 342 339 337 344 336 0 358 356 357 359 357 9 32 21 22 353 347 339 324 343 50 13 12 34 69 261 252 230 223 221 223 229 233 238 223 216 205 182 184 195 200 204 200 197 189 196 213 196 193 204 202 194 199 226 237 193 187 200 178 182 190
335 337 338 340 345 337 347 353 356 0 1 360 354 10 12 13 0 345 336 337 337 7 23 336 317 315 291 302 279 245 209 209 220 227 224 216 211 194 185 197 198 201 206 211 187 196 209 213 211 222 204 198 208 208 214 207 216 201 183 160 179 200
338 333 338 333 336 342 339 343 356 358 6 9 4 5 360 10 9 3 342 339 333 338 345 311 291 274 260 239 254 264 241 222 229 226 213 208 203 189 184 190 201 211 213 193 201 203 221 213 216 215 210 208 221 232 225 211 193 206 188 202 190 185
328 320 325 332 334 333 333 333 345 2 357 3 11 11 7 12 14 1 342 339 337 298 268 276 276 293 277 232 232 239 247 241 236 236 218 214 200 192 181 186 191 197 214 188 197 205 219 211 225 217 214 206 207 226 209 210 204 208 203 204 207 178
323 326 326 328 325 324 326 336 337 340 353 358 6 17 6 356 356 355 356 347 339 325 308 287 269 244 270 267 239 236 248 259 251 244 245 230 229 230 210 204 207 203 213 194 203 233 216 219 228 219 220 207 211 216 212 207 207 204 208 209 203 192